AirNav   Phillips 66 Aviation Fuel
 
 1030 users online  

53K Osage City Municipal Airport
Osage City, Kansas, USA

GOING TO OSAGE CITY?


FAA INFORMATION EFFECTIVE 29 MARCH 2018

Location

FAA Identifier: 53K
Lat/Long: 38-38-00.3750N / 095-48-06.4500W
38-38.006250N / 095-48.107500W
38.6334375 / -95.8017917
(estimated)
Elevation: 1105 ft. / 337 m (estimated)
Variation: 06E (1985)
From city: 1 mile E of OSAGE CITY, KS
Time zone: UTC -5 (UTC -6 during Standard Time)
Zip code: 66523

Airport Operations

Airport use: Open to the public
Activation date: 01/1949
Control tower: no
ARTCC: KANSAS CITY CENTER
FSS: WICHITA FLIGHT SERVICE STATION
NOTAMs facility: ICT (NOTAM-D service available)
Attendance: UNATNDD
Wind indicator: yes
Segmented circle: no
Lights: SS-SR
Beacon: white-green (lighted land airport)

Airport Communications

CTAF: 122.9

Nearby radio navigation aids

VOR radial/distance  VOR name  Freq  Var
EMPr030/25.9EMPORIA VORTAC112.8008E
TOPr196/32.4TOPEKA VORTAC117.8005E

 
NDB name  Hdg/Dist  Freq  Var  ID
BOYD344/20.424505EUKL ..- -.- .-..

Airport Services

Fuel available: 100LL
FUEL AVBL 24 HRS WITH CREDIT CARD.
Parking: tiedowns
Bottled oxygen: NONE
Bulk oxygen: NONE

Runway Information

Runway 17/35

Dimensions: 2560 x 40 ft. / 780 x 12 m
Surface: asphalt, in fair condition
Runway edge lights: non-standard
RWY END LTS RED, NO SPLIT LENSE; DSPLCD THLD LTS GREEN, NO SPLIT LENSE.
Gradient: S
RUNWAY 17  RUNWAY 35
Latitude: 38-38.217167N38-37.795333N
Longitude: 095-48.107500W095-48.107500W
Elevation: 1092.0 ft.1105.0 ft.
Gradient: 0.5% UP
Traffic pattern: leftleft
Runway heading: 174 magnetic, 180 true354 magnetic, 000 true
Displaced threshold: 215 ft.252 ft.
Markings: basic, in good conditionbasic, in good condition
Obstructions: 55 ft. tree, 765 ft. from runway, 38 ft. left of centerline, 10:1 slope to clear
+15 ROAD 50 FT FM RWY END; +30 POLE 150 FT FM RWY END 120 FT L OF CNTRLN.
none
+15 ROAD 27 FT FM RWY END.

Airport Ownership and Management from official FAA records

Ownership: Publicly-owned
Owner: CITY OF OSAGE
201 S 5TH ST
OSAGE CITY, KS 66523
Phone 785-528-3714
Manager: RODNEY WILLIS
201 S 5TH ST
OSAGE CITY, KS 66523
Phone 785-528-3714

Airport Operational Statistics

Aircraft based on the field: 10
Single engine airplanes: 6
Helicopters: 4
    
Aircraft operations: avg 52/week *
81% local general aviation
19% transient general aviation
* for 12-month period ending 30 September 2014

Additional Remarks

PAJA ACTIVITIES SAT & SUN.
+15 RD 55 FT E OF RWY.

Instrument Procedures

There are no published instrument procedures at 53K.

Some nearby airports with instrument procedures:

KFOE - Topeka Regional Airport (20 nm N)
KUKL - Coffey County Airport (20 nm S)
KEMP - Emporia Municipal Airport (26 nm SW)
KOWI - Ottawa Municipal Airport (26 nm E)
KTOP - Philip Billard Municipal Airport (27 nm N)
 
Loc | Ops | Rwys | IFR | FBO | Links
Com | Nav | Svcs | Stats | Notes

Kansas City Aviation Department
 
Area around 53K (Osage City Municipal Airport)
 
Road maps at: MapQuest Bing Google
 
Aerial photo
WARNING: Photo may not be current or correct
Aerial photo of 53K (Osage City Municipal Airport)
Do you have a better or more recent aerial photo of Osage City Municipal Airport that you would like to share? If so, please send us your photo.

 
Sectional chart

 
Airport distance calculator
Flying to Osage City Municipal Airport? Find the distance to fly.

From to 53K

Sunrise and sunset
Times for 22-Apr-2018
 Local
(UTC-5)
 Zulu
(UTC)
Morning civil twilight06:1011:10
Sunrise06:3811:38
Sunset20:0501:05
Evening civil twilight20:3301:33

Current date and time
Zulu (UTC)  22-Apr-2018 22:06:13
Local (UTC-5)  22-Apr-2018 17:06:13
 
METAR
KFOE 
19nm N 
222153Z 03010KT 10SM FEW046 OVC080 18/08 A3006 RMK AO2 SLP175 T01830083
KEMP 
26nm SW 
222153Z AUTO 04011KT 10SM FEW029 OVC036 15/10 A3004 RMK AO2 SLP175 T01500100
KOWI 
26nm E 
222200Z AUTO 06014G20KT 9SM SCT034 SCT040 17/10 A3004 RMK AO2
KTOP 
27nm N 
222153Z 07008KT 10SM CLR 21/07 A3005 RMK AO2 SLP172 T02060072
KLWC 
36nm NE 
222152Z AUTO 06011G21KT 10SM BKN045 19/08 A3006 RMK AO2 SLP177 T01890078
TAF
KFOE 
19nm N 
221720Z 2218/2318 03010KT P6SM SCT025 BKN045 FM230600 01006KT P6SM BKN100
NOTAMs
Click for the latest NOTAMs
NOTAMs are issued by the DoD/FAA and will open in a separate window not controlled by AirNav.

 

 
 

Would you like to see your business listed on this page?

 If your business provides an interesting product or service to pilots, flight crews, aircraft, or users of the Osage City Municipal Airport, you should consider listing it here.  To start the listing process, click on the button below
 
Add a business
 

Other Pages about Osage City Municipal Airport

Update a link
 
Copyright © AirNav, LLC. All rights reserved. Privacy Policy  Contact